Location: Newark
(35.2161°N, 26.1013°E)
Time: 07:35:36
(UTC+00:00)

LightSail 2 - Visible Passes

Search period start: 17 November 2019 00:00
Search period end: 27 November 2019 00:00
Orbit: 700 x 727 km, 24.0° (Epoch: 17 November)

Date Brightness Start Highest point End Pass type
(mag) Time Alt. Az. Time Alt. Az. Time Alt. Az.
17 Nov 6.9 03:04:15 18° SSW 03:05:27 19° S 03:09:03 10° SSE visible
18 Nov 7.5 02:09:58 16° SSE 02:09:58 16° SSE 02:11:32 10° SE visible
18 Nov 7.4 03:50:41 10° SW 03:52:33 12° SSW 03:54:24 10° S visible
19 Nov 7.2 02:54:40 15° SSW 02:54:50 15° SSW 02:57:38 10° SSE visible
20 Nov 7.9 02:00:23 10° SSE 02:00:23 10° SSE 02:00:25 10° SSE visible
